OPS 4682 DEB, 26732

Orbit data source: Space-Track

OPS 4682 DEB, 26732 is space debris in LEO originally from a launch on Sat, 03 Apr 1965 UTC launched from the Air Force Western Test Range (AFWTR). Debris objects in space refer to the collection of defunct objects orbiting the Earth. Examples of debris include non-operational satellites, rocket bodies, and fragments generated from explosions, collisions, or faulty payload assembly.

Loading next visibility...
Identifier
26732, 1965-027BF
Orbit
LEO
Country
Flag of USUS
Related business
Manufacturer
Unknown
Mission
Spacecraft
Bus & Motor
Unknown
Mass
Unknown
Launch date (UTC)
1965-04-03 (61 years ago)
Launch vehicle
Unknown
Launch site
Air Force Western Test Range (AFWTR)
Object type
Payload
Rocket body
Debris
Shape & HBR
Unknown shape, 0.1 m
Radar Cross Section
Medium (>0.1 m² and <1 m²)

Expand to show TLE details & history
Last TLE update: 9 hours ago

TLE from 9 hours ago
0 OPS 4682 DEB
1 26732U 65027BF  26150.59389025 -.00000091  00000-0 -34413-3 0  9995
2 26732  90.2561  10.7556 0059111 229.4173 157.8072 12.95967813492897
Epoch: 2026-05-30T14:15Z
TLE epoch observation values (Epoch: 2026-05-30T14:15:12.117Z)
Latitude
27.51387°
Longitude
-91.2853°
Altitude
1,323.242 km
Speed
7.178 km/s
True Right ascension
00h 42m 29s
True Declination
27° 23' 01"
Sunlit
Object was in daylight at epoch
Visualization orbit readout
Latitude
Unknown
Longitude
Unknown
Altitude
Unknown
Speed
Unknown
Apparent Right ascension
Unknown
Apparent Declination
Unknown
Sunlit
N/A
Visualization observer readout
Local Sidereal Time
09:13:57
Azimuth
Unknown
Elevation
Unknown
Doppler factor
Unknown
Orbital elements
Apogee altitude
1,320.298 km
Perigee altitude
1,229.82 km
Semi-major axis
7,653.196 km
Eccentricity
0.00591
Inclination
90.2561°
RAAN
10.7556°
Arg. of periapsis
229.4173°
True anomaly
158.06132°
Mean anomaly
157.8072°
Eccentric anomaly
157.93443°
Mean motion
3.24175 °/min
Orbital period
111.05 mins
BSTAR
-0.00034413
Loading maneuver chart data...
Computing Atmospheric mass density...
Loading historical data...
Loading historical data...
Loading historical data...
Loading historical data...
Loading historical data...
Loading historical data...
Loading historical data...

Documentation

Showing up to 5 results
|